Погода в Медвежьегорске

Погода в Медвежьегорске : погода сейчас, прогноз погоды и архив. Всё, что Вы хотите узнать о погоде в Медвежьегорске!

Хотите узнать прогноз погоды в Медвежьегорске? Тогда Вам сюда: Погода в Медвежьегорске

Поиск расширенной информации на нашем сайте:

Другие новости

Новости СМИ2

Главная страница сайта

Новости сайта

02.10.2013

Напоминаем, что на нашем новом сайте вы можете получить высокодетализированные прогнозы погоды по пунктам России, СНГ и мира (включающие важные для авиации метеовеличины, такие как направление и скорость ветра, видимость, явления погоды, количество и форма облачности, нижняя и верхняя граница облачности), а также ознакомиться с разнообразными материалами по авиационной метеорологии и подборкой полезных ссылок на эту тему.

Сайт Метеоцентр.Азия посвящён разработке технологий оптимизации авиаметеорологического обслуживания, включая проектирование и перспективное создание нескольких автоматизированных авиаметеорологических систем:
- система выпуска высокодетальных прогностических карт явлений погоды для нижнего воздушного пространства по России и ближнему зарубежью;
- система верификации прогнозов TAF (выпускаемых синоптиками официальных АМСГ РФ и ближнего зарубежья) и AUTOTAF (выпускаемых сайтом Метеоцентр.Азия) - выявление ошибок, онлайн-сопоставление с фактической погодой METAR, автоматическое внесение коррективов в прогнозы при резком отклонении фактической погоды от прогноза, подсчёт оправдываемости прогнозов по элементам и в целом;
- система обработки, анализа и отображения авиаметеорологической информации для применения провайдерами метеорологической информации.


Погода в Медвежьегорске - сегодня

Время (UTC), дата Ветер
(°,м/с) 
Видим.   Явления Облачность Т
(°С)
Тd
(°С)
f(%) Тe
(°С)
Pmin
(гПа)
dP
(гПа)
Po
(мм)
O2
(г/м3)
Тmin Tmax R s Состояние
почвы
03 17.02.17 тихо ()   10 км    10/10 480 м 
[Sc]
-3.8 -5.1 91 -4  1004.5  -2.3  746  305  -7.9    0.0     
06 17.02.17 тихо ()   35000 м    10/10 300 м 
[Frnb]
-3.5 -4.1 96 -4  1002.6  -1.9  744  304  -6    0.0  56  равномерный
сухой снег
100% 
09 17.02.17 280 (З) 30000 м    10/10 270 м 
[St]
-2 -3.6 89 -1  1001.1  -1.4  743  302           
12 17.02.17 290 (З) 20000 м    10/10 1000 м 
[Sc]
-0.7 -3.4 82 -2  999.6  -1.4  742  300           
15 17.02.17 290 (З) 20000 м    10/10 450 м кучево-дожд. 
[Cb cap]
-0.5 -2.7 85 997.7  -1.8  741  299           
18 17.02.17 290 (З) 10 км  слаб. крупа{ливн. осадки}  10/10 400 м кучево-дожд. 
[Cb cap]
-0.1 -1.6 90 -2  997.1  -0.7  740  299    +0  0.0     
21 17.02.17 290 (З) 10 км  слаб. ливневой снег  10/10 720 м кучево-дожд. 
[Cb cap]
+0 -1.7 88 -1  996.8  -0.3  740  298           
00 18.02.17 290 (З) 20000 м  {ливн. осадки}  9/8 540 м средняя 
[Sc|Ac trans]
-0.2 -2.7 83 -2  996.3  -0.5  740  299           
03 18.02.17 290 (З) 20000 м    8/8 480 м 
[Frnb]
-0.7 -3.3 83 -2  996  -0.4  739  299  -1.2    0.1     
06 18.02.17 290 (З) 20000 м    10/0 средняя, верхняя 
[Ac trans|Cs]
-2.4 -5.5 79 -4  995.5  -0.5  739  301  -2.4    0.1  56  равномерный
мокрый или
старый снег
100% 
09 18.02.17 300 (СЗ) 20000 м  слаб. ливневой снег  10/8 480 м кучево-дожд., средняя 
[Cb cap|Ac As]
-1.8 -5.7 75 -4  995.5  -0.1  739  300           
12 18.02.17 290 (З) 20000 м  {ливн. осадки}  10/6 630 м средняя 
[Sc|Ac As]
-1.7 -5.3 76 -4  995.3  -0.2  739  300           
15 18.02.17 310 (СЗ) 20000 м    3/3 600 м 
[Sc]
-2.8 -7.3 71 -4  997.7  2.4  741  302      0.0     
18 18.02.17 310 (СЗ) 10 км  {ливн. осадки}  ясно 
-6.5 -8.8 84 -6  1001.6  3.7  743  308    -1.7  0.0     
21 18.02.17 300 (СЗ) 10 км    ясно 
-10.5 -11.1 95 -12  1004.1  2.3  745  313           
00 19.02.17 310 (СЗ) 10 км    ясно 
-13.4 -14.6 91 -13  1004.8  0.6  746  317           
03 19.02.17 130 (ЮВ) 10 км    10/10 100 м 
[St]
-13.6 -14.8 91 -14  1003.5  -1.2  745  317  -14.5    0.0     
06 19.02.17 130 (ЮВ) 35000 м    10/10 180 м 
[St]
-12.7 -13.8 91 -13  1001.4  -2.1  743  315  -14.5      56  равномерный
сухой снег
100% 
09 19.02.17 120 (ЮВ) 3300 м  слаб. снег  10/10 240 м 
[Ns]
-10.1 -11.1 92 -10  998.2  -3.1  741  311           
12 19.02.17 130 (ЮВ) 3900 м  слаб. снег  10/10 330 м 
[Ns]
-6.5 -7.1 95 -8  993.6  -4.4  737  305           
15 19.02.17 120 (ЮВ) 2200 м  снег  10/10 210 м 
[Ns]
-5.3 -5.8 96 -5  990  -3.5  735  303         
18 19.02.17 тихо ()   2000 м  слаб. снег  10/10 400 м 
[Ns]
-5.6 -6.1 96 -6  987.6  -2.4  733  302    -5.3     
21 19.02.17 тихо ()   2000 м  слаб. снег  10/10 180 м 
[Frnb|Ns]
-5.9 -6.5 96 -6  985.4  -2.2  731  302           
00 20.02.17 100 (В) 1000 м  снег  10/10 180 м 
[Frnb|Ns]
-6.4 -7.1 95 -6  982.3  -3.1  729  302           
03 20.02.17 060 (СВ) 1000 м  снег  10/10 180 м 
[Frnb]
-7.2 -8 94 -7  979.8  -2.5  727  302  -7.2       
Время (UTC), дата Ветер
(°,м/с) 
Видим.   Явления Облачность Т
(°С)
Тd
(°С)
f(%) Тe
(°С)
Pmin
(гПа)
dP
(гПа)
Po
(мм)
O2
(г/м3)
Тmin Tmax R s Состояние
почвы

Для получения пояснительной информации подведите курсор к названию столбца.

ПОГОДА в Медвежьегорске - архив

Всё, что Вы хотите узнать о погоде в Медвежьегорске - удобно и подробно!

Выберите нужную дату (начиная с 1 января 2015* года) и нажмите кнопку "Найти".
Будут отображены архивные сводки погоды по пункту Медвежьегорск, начиная с указанной даты.


Отображать данные в формате CSV (для использования в таблицах Excel)


Внимание! Наш архив погоды предназначен исключительно для личного некоммерческого использования в познавательных целях. Если Вам необходимы официальные справки о состоянии погоды (для производственных, юридических, коммерческих и т.п. целей), обращайтесь в органы Росгидромета.

*Примечание: данная дата относится к архиву по метеостанциям СССР (Россия, СНГ, Балтия).
Архив по метеостанциям Зарубежной Европы и Азии (кроме Китая) хранится 10 дней, по другим регионам земного шара (Китай, Африка, Америка, Австралия, Океания) - 1 день.

Медвежьегорск - район местоположения метеостанции


Название, широта, долгота, высота метеостанции:
Медвежьегорск 62.9°ш. 34.4°д. 81 м над ур. моря [Российская Федерация]

Дополнительная информация

В oтличие oт бoльшинства пoгoдных сайтoв мы публикуем пoдрoбную метеoинфoрмацию в детальнoм прoфессиoнальнoм фoрмате.

Характеристики температуры и влажнoсти вoздуха измеряются на высoте 2 м в тени вдали oт зданий и деревьев.
Скoрoсть ветра измеряется на высoте 10 м (на урoвне рoста челoвека скoрoсть ветра ниже в 1.5-2 раза). Если метеoстанция нахoдится в гoрoде или в лесу, тo скoрoсть ветра занижена на 2-4 м/с пo сравнению с oткрытым местoм. Скoрoсть ветра над акватoриями крупных рек и oзёр, а также на вершинах хoлмoв на 2-5 м/с выше, чем в oбычных услoвиях.
Атмoсфернoе давление в разных тoчках местнoсти мoжет значительнo oтличаться oт давления на метеoстанции, в зависимoсти oт услoвий рельефа (при пoдъёме на 10 м давление пoнижается примернo на 1 мм рт.ст.).